| time (UTC) | temp F | wind direction | speed MPH | gust MPH | rain 1hr in | rain 24hr in | rain mn in | humidity % | barometer mb |
| 20260505000437 | 72 | 290 | 0.0 | 1.0 | 0.00 | 0.00 | 0.00 | 41 | 1013.3 |
| 20260504235934 | 72 | 269 | 0.0 | 2.0 | 0.00 | 0.00 | 0.00 | 42 | 1013.2 |
| 20260504235431 | 72 | 184 | 2.0 | 3.0 | 0.00 | 0.00 | 0.00 | 41 | 1013.0 |
| 20260504234927 | 73 | 315 | 0.0 | 2.0 | 0.00 | 0.00 | 0.00 | 41 | 1013.1 |
| 20260504234425 | 73 | 245 | 1.0 | 2.0 | 0.00 | 0.00 | 0.00 | 40 | 1013.0 |
| 20260504233921 | 73 | 250 | 2.0 | 3.0 | 0.00 | 0.00 | 0.00 | 39 | 1012.9 |
| 20260504233417 | 73 | 320 | 0.0 | 1.0 | 0.00 | 0.00 | 0.00 | 40 | 1012.9 |
| 20260504232914 | 73 | 207 | 4.0 | 4.0 | 0.00 | 0.00 | 0.00 | 39 | 1012.8 |
| 20260504232411 | 73 | 253 | 0.0 | 2.0 | 0.00 | 0.00 | 0.00 | 39 | 1012.9 |
| 20260504231908 | 73 | 250 | 1.0 | 1.0 | 0.00 | 0.00 | 0.00 | 38 | 1012.9 |
| 20260504231404 | 73 | 190 | 1.0 | 2.0 | 0.00 | 0.00 | 0.00 | 39 | 1012.7 |
| 20260504230901 | 74 | 234 | 2.0 | 2.0 | 0.00 | 0.00 | 0.00 | 37 | 1012.5 |
| 20260504230358 | 74 | 311 | 1.0 | 2.0 | 0.00 | 0.00 | 0.00 | 37 | 1012.7 |
| 20260504225856 | 74 | 256 | 5.0 | 5.0 | 0.00 | 0.00 | 0.00 | 36 | 1012.4 |
| 20260504225352 | 75 | 229 | 2.0 | 3.0 | 0.00 | 0.00 | 0.00 | 37 | 1012.7 |
| 20260504224850 | 75 | 275 | 1.0 | 3.0 | 0.00 | 0.00 | 0.00 | 36 | 1012.7 |
| 20260504224347 | 75 | 227 | 1.0 | 2.0 | 0.00 | 0.00 | 0.00 | 36 | 1012.7 |
| 20260504223844 | 75 | 210 | 2.0 | 4.0 | 0.00 | 0.00 | 0.00 | 35 | 1012.8 |
| 20260504223339 | 75 | 276 | 1.0 | 4.0 | 0.00 | 0.00 | 0.00 | 35 | 1013.1 |
| 20260504222836 | 75 | 172 | 1.0 | 4.0 | 0.00 | 0.00 | 0.00 | 35 | 1012.9 |
| 20260504222333 | 75 | 252 | 1.0 | 4.0 | 0.00 | 0.00 | 0.00 | 35 | 1012.8 |
| 20260504221831 | 76 | 321 | 0.0 | 5.0 | 0.00 | 0.00 | 0.00 | 35 | 1012.7 |
| 20260504221327 | 76 | 234 | 3.0 | 6.0 | 0.00 | 0.00 | 0.00 | 34 | 1012.8 |
| 20260504220825 | 76 | 287 | 3.0 | 4.0 | 0.00 | 0.00 | 0.00 | 34 | 1012.7 |
| 20260504220321 | 76 | 208 | 2.0 | 4.0 | 0.00 | 0.00 | 0.00 | 35 | 1012.7 |
| 20260504215819 | 76 | 197 | 2.0 | 6.0 | 0.00 | 0.00 | 0.00 | 35 | 1012.7 |
| 20260504215315 | 76 | 220 | 4.0 | 8.0 | 0.00 | 0.00 | 0.00 | 34 | 1012.6 |
| 20260504214811 | 76 | 200 | 2.0 | 2.0 | 0.00 | 0.00 | 0.00 | 34 | 1012.8 |
| 20260504214308 | 76 | 243 | 3.0 | 6.0 | 0.00 | 0.00 | 0.00 | 34 | 1012.6 |
| 20260504213805 | 76 | 220 | 1.0 | 3.0 | 0.00 | 0.00 | 0.00 | 34 | 1012.8 |
| 20260504213301 | 76 | 305 | 2.0 | 3.0 | 0.00 | 0.00 | 0.00 | 34 | 1012.5 |
| 20260504212758 | 76 | 227 | 2.0 | 5.0 | 0.00 | 0.00 | 0.00 | 33 | 1012.7 |
| 20260504212249 | 76 | 276 | 2.0 | 5.0 | 0.00 | 0.00 | 0.00 | 34 | 1012.8 |
| 20260504211746 | 76 | 250 | 3.0 | 6.0 | 0.00 | 0.00 | 0.00 | 34 | 1012.8 |
| 20260504211242 | 77 | 212 | 0.0 | 4.0 | 0.00 | 0.00 | 0.00 | 34 | 1012.7 |
| 20260504210740 | 77 | 249 | 1.0 | 3.0 | 0.00 | 0.00 | 0.00 | 34 | 1012.6 |
| 20260504210237 | 77 | 124 | 0.0 | 2.0 | 0.00 | 0.00 | 0.00 | 34 | 1012.7 |
| 20260504205734 | 76 | 190 | 2.0 | 4.0 | 0.00 | 0.00 | 0.00 | 36 | 1012.8 |
| 20260504205232 | 76 | 193 | 1.0 | 4.0 | 0.00 | 0.00 | 0.00 | 35 | 1012.6 |
| 20260504204730 | 76 | 281 | 1.0 | 7.0 | 0.00 | 0.00 | 0.00 | 34 | 1012.7 |
| 20260504204228 | 76 | 258 | 2.0 | 6.0 | 0.00 | 0.00 | 0.00 | 34 | 1012.6 |
| 20260504203727 | 76 | 245 | 1.0 | 5.0 | 0.00 | 0.00 | 0.00 | 34 | 1012.9 |
| 20260504203224 | 76 | 214 | 2.0 | 2.0 | 0.00 | 0.00 | 0.00 | 34 | 1012.9 |
| 20260504202724 | 76 | 222 | 2.0 | 3.0 | 0.00 | 0.00 | 0.00 | 34 | 1013.0 |
| 20260504202221 | 76 | 180 | 0.0 | 4.0 | 0.00 | 0.00 | 0.00 | 35 | 1013.0 |
| 20260504201718 | 76 | 300 | 0.0 | 3.0 | 0.00 | 0.00 | 0.00 | 34 | 1013.0 |
| 20260504201215 | 76 | 269 | 2.0 | 4.0 | 0.00 | 0.00 | 0.00 | 35 | 1013.3 |
| 20260504200713 | 76 | 325 | 1.0 | 2.0 | 0.00 | 0.00 | 0.00 | 34 | 1013.5 |
| 20260504200209 | 76 | 211 | 2.0 | 4.0 | 0.00 | 0.00 | 0.00 | 34 | 1013.3 |
| 20260504195705 | 75 | 153 | 0.0 | 4.0 | 0.00 | 0.00 | 0.00 | 36 | 1013.4 |
| 20260504195201 | 75 | 159 | 0.0 | 6.0 | 0.00 | 0.00 | 0.00 | 35 | 1013.4 |
| 20260504194658 | 75 | 213 | 3.0 | 4.0 | 0.00 | 0.00 | 0.00 | 35 | 1013.6 |
| 20260504194154 | 76 | 195 | 2.0 | 4.0 | 0.00 | 0.00 | 0.00 | 34 | 1013.5 |
| 20260504193651 | 75 | 212 | 3.0 | 6.0 | 0.00 | 0.00 | 0.00 | 34 | 1013.5 |
| 20260504193149 | 75 | 252 | 0.0 | 2.0 | 0.00 | 0.00 | 0.00 | 36 | 1013.6 |
| 20260504192647 | 75 | 329 | 1.0 | 5.0 | 0.00 | 0.00 | 0.00 | 36 | 1013.6 |
| 20260504192144 | 74 | 343 | 0.0 | 3.0 | 0.00 | 0.00 | 0.00 | 35 | 1013.9 |
| 20260504191643 | 74 | 324 | 2.0 | 4.0 | 0.00 | 0.00 | 0.00 | 36 | 1013.9 |
| 20260504191138 | 74 | 222 | 0.0 | 6.0 | 0.00 | 0.00 | 0.00 | 35 | 1014.0 |
| 20260504190634 | 74 | 249 | 1.0 | 4.0 | 0.00 | 0.00 | 0.00 | 34 | 1014.1 |
| 20260504190131 | 75 | 185 | 4.0 | 5.0 | 0.00 | 0.00 | 0.00 | 34 | 1014.1 |
| 20260504185628 | 75 | 189 | 1.0 | 4.0 | 0.00 | 0.00 | 0.00 | 35 | 1014.2 |
| 20260504185125 | 76 | 171 | 2.0 | 3.0 | 0.00 | 0.00 | 0.00 | 33 | 1014.4 |
| 20260504184620 | 75 | 269 | 0.0 | 4.0 | 0.00 | 0.00 | 0.00 | 34 | 1014.4 |
| 20260504184115 | 75 | 206 | 1.0 | 5.0 | 0.00 | 0.00 | 0.00 | 33 | 1014.5 |
| 20260504183613 | 74 | 200 | 1.0 | 5.0 | 0.00 | 0.00 | 0.00 | 35 | 1014.5 |
| 20260504183111 | 73 | 204 | 2.0 | 4.0 | 0.00 | 0.00 | 0.00 | 33 | 1014.6 |
| 20260504182608 | 74 | 182 | 2.0 | 2.0 | 0.00 | 0.00 | 0.00 | 34 | 1014.5 |
| 20260504182105 | 73 | 213 | 1.0 | 5.0 | 0.00 | 0.00 | 0.00 | 34 | 1014.7 |
| 20260504181602 | 72 | 232 | 3.0 | 4.0 | 0.00 | 0.00 | 0.00 | 33 | 1014.5 |
| 20260504181100 | 72 | 278 | 1.0 | 6.0 | 0.00 | 0.00 | 0.00 | 34 | 1014.7 |
| 20260504180559 | 73 | 256 | 3.0 | 4.0 | 0.00 | 0.00 | 0.00 | 35 | 1014.8 |
| 20260504180057 | 73 | 210 | 3.0 | 4.0 | 0.00 | 0.00 | 0.00 | 35 | 1014.9 |
| 20260504175554 | 73 | 248 | 2.0 | 4.0 | 0.00 | 0.00 | 0.00 | 36 | 1014.9 |
| 20260504175051 | 73 | 290 | 0.0 | 2.0 | 0.00 | 0.00 | 0.00 | 36 | 1014.8 |
| 20260504174549 | 73 | 193 | 2.0 | 3.0 | 0.00 | 0.00 | 0.00 | 35 | 1014.8 |
| 20260504174045 | 73 | 173 | 0.0 | 2.0 | 0.00 | 0.00 | 0.00 | 37 | 1014.9 |
| 20260504173542 | 72 | 281 | 1.0 | 3.0 | 0.00 | 0.00 | 0.00 | 35 | 1014.9 |
| 20260504173040 | 71 | 243 | 2.0 | 4.0 | 0.00 | 0.00 | 0.00 | 35 | 1015.0 |
| 20260504172536 | 72 | 287 | 0.0 | 4.0 | 0.00 | 0.00 | 0.00 | 35 | 1015.1 |
| 20260504172033 | 73 | 171 | 2.0 | 3.0 | 0.00 | 0.00 | 0.00 | 35 | 1015.2 |
| 20260504171529 | 73 | 225 | 1.0 | 3.0 | 0.00 | 0.00 | 0.00 | 34 | 1015.3 |
| 20260504171026 | 73 | 271 | 2.0 | 3.0 | 0.00 | 0.00 | 0.00 | 35 | 1015.4 |
| 20260504170522 | 73 | 204 | 2.0 | 4.0 | 0.00 | 0.00 | 0.00 | 35 | 1015.2 |
| 20260504160437 | 70 | 187 | 1.0 | 5.0 | 0.00 | 0.00 | 0.00 | 38 | 1016.1 |
| 20260504150900 | 67 | 117 | 1.0 | 6.0 | 0.00 | 0.00 | 0.00 | 39 | 1016.5 |
| 20260504150357 | 67 | 263 | 2.0 | 3.0 | 0.00 | 0.00 | 0.00 | 39 | 1016.8 |
| 20260504141327 | 63 | 132 | 1.0 | 3.0 | 0.00 | 0.00 | 0.00 | 46 | 1016.6 |
| 20260504140823 | 63 | 195 | 3.0 | 5.0 | 0.00 | 0.00 | 0.00 | 46 | 1016.8 |
| 20260504140319 | 63 | 246 | 2.0 | 4.0 | 0.00 | 0.00 | 0.00 | 48 | 1017.1 |
| 20260504130748 | 60 | 258 | 1.0 | 3.0 | 0.00 | 0.00 | 0.00 | 52 | 1017.4 |
| 20260504130244 | 60 | 157 | 0.0 | 2.0 | 0.00 | 0.00 | 0.00 | 53 | 1017.2 |
| 20260504120208 | 52 | 149 | 0.0 | 2.0 | 0.00 | 0.00 | 0.00 | 62 | 1017.5 |
| 20260504110635 | 51 | 135 | 0.0 | 2.0 | 0.00 | 0.00 | 0.00 | 62 | 1017.4 |
| 20260504110131 | 51 | 168 | 0.0 | 3.0 | 0.00 | 0.00 | 0.00 | 62 | 1017.6 |
| 20260504100551 | 51 | 23 | 0.0 | 1.0 | 0.00 | 0.00 | 0.00 | 60 | 1017.3 |
| 20260504081945 | 54 | 155 | 2.0 | 3.0 | 0.00 | 0.00 | 0.00 | 50 | 1017.6 |
| 20260504081442 | 54 | 197 | 2.0 | 3.0 | 0.00 | 0.00 | 0.00 | 50 | 1017.6 |
| 20260504080938 | 54 | 161 | 1.0 | 2.0 | 0.00 | 0.00 | 0.00 | 51 | 1017.7 |
| 20260504080435 | 54 | 237 | 0.0 | 2.0 | 0.00 | 0.00 | 0.00 | 51 | 1017.8 |
| 20260504070403 | 52 | 185 | 2.0 | 2.0 | 0.00 | 0.00 | 0.00 | 55 | 1017.6 |
| 20260504050750 | 51 | 4 | 0.0 | 2.0 | 0.00 | 0.00 | 0.00 | 56 | 1017.6 |
| 20260504050247 | 51 | 353 | 0.0 | 1.0 | 0.00 | 0.00 | 0.00 | 56 | 1017.7 |
| 20260504045744 | 51 | 166 | 0.0 | 1.0 | 0.00 | 0.00 | 0.00 | 55 | 1017.6 |
| 20260504045239 | 51 | 200 | 0.0 | 1.0 | 0.00 | 0.00 | 0.00 | 55 | 1017.9 |
| 20260504044737 | 51 | 222 | 1.0 | 2.0 | 0.00 | 0.00 | 0.00 | 54 | 1017.7 |
| 20260504044234 | 51 | 229 | 0.0 | 2.0 | 0.00 | 0.00 | 0.00 | 55 | 1017.8 |
| 20260504043731 | 51 | 167 | 1.0 | 2.0 | 0.00 | 0.00 | 0.00 | 54 | 1017.5 |
| 20260504043228 | 51 | 186 | 0.0 | 2.0 | 0.00 | 0.00 | 0.00 | 55 | 1017.6 |
| 20260504042726 | 51 | 176 | 0.0 | 2.0 | 0.00 | 0.00 | 0.00 | 55 | 1017.7 |
| 20260504042222 | 51 | 183 | 2.0 | 2.0 | 0.00 | 0.00 | 0.00 | 56 | 1017.8 |
| 20260504041718 | 51 | 139 | 1.0 | 2.0 | 0.00 | 0.00 | 0.00 | 56 | 1017.5 |
| 20260504041214 | 51 | 151 | 1.0 | 2.0 | 0.00 | 0.00 | 0.00 | 54 | 1017.5 |
| 20260504040711 | 51 | 353 | 0.0 | 2.0 | 0.00 | 0.00 | 0.00 | 55 | 1017.6 |
| 20260504040208 | 51 | 205 | 0.0 | 1.0 | 0.00 | 0.00 | 0.00 | 55 | 1017.6 |
| 20260504035704 | 51 | 178 | 0.0 | 2.0 | 0.00 | 0.00 | 0.00 | 56 | 1017.8 |
| 20260504035202 | 50 | 181 | 0.0 | 1.0 | 0.00 | 0.00 | 0.00 | 58 | 1017.5 |
| 20260504034659 | 49 | 354 | 0.0 | 2.0 | 0.00 | 0.00 | 0.00 | 62 | 1017.4 |
| 20260504034156 | 49 | 23 | 0.0 | 0.0 | 0.00 | 0.00 | 0.00 | 62 | 1017.5 |
| 20260504033654 | 49 | 3 | 0.0 | 2.0 | 0.00 | 0.00 | 0.00 | 61 | 1017.5 |
| 20260504033151 | 49 | 46 | 0.0 | 1.0 | 0.00 | 0.00 | 0.00 | 62 | 1017.3 |
| 20260504032647 | 49 | 32 | 0.0 | 1.0 | 0.00 | 0.00 | 0.00 | 61 | 1017.6 |
| 20260504032145 | 49 | 39 | 1.0 | 2.0 | 0.00 | 0.00 | 0.00 | 61 | 1017.6 |
| 20260504031642 | 49 | 165 | 0.0 | 2.0 | 0.00 | 0.00 | 0.00 | 61 | 1017.4 |
| 20260504031138 | 49 | 353 | 0.0 | 2.0 | 0.00 | 0.00 | 0.00 | 60 | 1017.6 |
| 20260504030635 | 49 | 11 | 0.0 | 2.0 | 0.00 | 0.00 | 0.00 | 61 | 1017.3 |
| 20260504030131 | 49 | 12 | 0.0 | 2.0 | 0.00 | 0.00 | 0.00 | 60 | 1017.3 |
| 20260504025628 | 49 | 17 | 0.0 | 1.0 | 0.00 | 0.00 | 0.00 | 60 | 1017.5 |
| 20260504025125 | 49 | 76 | 0.0 | 1.0 | 0.00 | 0.00 | 0.00 | 61 | 1017.4 |
| 20260504024622 | 49 | 10 | 0.0 | 1.0 | 0.00 | 0.00 | 0.00 | 61 | 1017.5 |
| 20260504024119 | 49 | 36 | 1.0 | 2.0 | 0.00 | 0.00 | 0.00 | 60 | 1017.3 |
| 20260504023616 | 49 | 32 | 0.0 | 1.0 | 0.00 | 0.00 | 0.00 | 60 | 1017.3 |
| 20260504023111 | 49 | 37 | 1.0 | 1.0 | 0.00 | 0.00 | 0.00 | 60 | 1017.3 |
| 20260504022608 | 50 | 43 | 1.0 | 2.0 | 0.00 | 0.00 | 0.00 | 59 | 1017.6 |
| 20260504022104 | 50 | 34 | 0.0 | 1.0 | 0.00 | 0.00 | 0.00 | 59 | 1017.5 |
| 20260504021602 | 50 | 15 | 0.0 | 2.0 | 0.00 | 0.00 | 0.00 | 59 | 1017.5 |
| 20260504021058 | 50 | 147 | 0.0 | 0.0 | 0.00 | 0.00 | 0.00 | 58 | 1017.3 |
| 20260504020555 | 50 | 149 | 0.0 | 1.0 | 0.00 | 0.00 | 0.00 | 58 | 1017.3 |
| 20260504020051 | 50 | 134 | 0.0 | 1.0 | 0.00 | 0.00 | 0.00 | 58 | 1017.3 |
| 20260504015548 | 51 | 22 | 0.0 | 0.0 | 0.00 | 0.00 | 0.00 | 58 | 1017.2 |
| 20260504015044 | 51 | 4 | 0.0 | 0.0 | 0.00 | 0.00 | 0.00 | 57 | 1017.3 |
| 20260504014540 | 51 | 19 | 0.0 | 1.0 | 0.00 | 0.00 | 0.00 | 57 | 1017.2 |
| 20260504014038 | 51 | 117 | 0.0 | 1.0 | 0.00 | 0.00 | 0.00 | 54 | 1017.1 |
| 20260504013535 | 51 | 55 | 0.0 | 0.0 | 0.00 | 0.00 | 0.00 | 55 | 1017.1 |
| 20260504013032 | 51 | 104 | 0.0 | 2.0 | 0.00 | 0.00 | 0.00 | 55 | 1017.0 |
| 20260504012529 | 52 | 38 | 0.0 | 2.0 | 0.00 | 0.00 | 0.00 | 56 | 1017.0 |
| 20260504012022 | 52 | 17 | 0.0 | 1.0 | 0.00 | 0.00 | 0.00 | 55 | 1017.2 |
| 20260504011518 | 52 | 130 | 0.0 | 1.0 | 0.00 | 0.00 | 0.00 | 54 | 1017.1 |
| 20260504011014 | 52 | 147 | 0.0 | 0.0 | 0.00 | 0.00 | 0.00 | 54 | 1017.1 |
| 20260504010510 | 53 | 44 | 0.0 | 0.0 | 0.00 | 0.00 | 0.00 | 53 | 1017.2 |
| 20260504010006 | 53 | 202 | 0.0 | 1.0 | 0.00 | 0.00 | 0.00 | 51 | 1017.1 |
| 20260504005503 | 53 | 126 | 0.0 | 1.0 | 0.00 | 0.00 | 0.00 | 51 | 1017.1 |
| 20260504005000 | 53 | 44 | 0.0 | 2.0 | 0.00 | 0.00 | 0.00 | 51 | 1017.2 |
| 20260504004458 | 53 | 53 | 0.0 | 0.0 | 0.00 | 0.00 | 0.00 | 51 | 1017.2 |
| 20260504003955 | 54 | 23 | 0.0 | 1.0 | 0.00 | 0.00 | 0.00 | 50 | 1017.0 |
| 20260504003450 | 54 | 66 | 0.0 | 1.0 | 0.00 | 0.00 | 0.00 | 49 | 1017.0 |
| 20260504002948 | 55 | 78 | 0.0 | 1.0 | 0.00 | 0.00 | 0.00 | 49 | 1016.8 |
| 20260504002445 | 55 | 14 | 0.0 | 1.0 | 0.00 | 0.00 | 0.00 | 47 | 1017.1 |
| 20260504001942 | 55 | 36 | 0.0 | 2.0 | 0.00 | 0.00 | 0.00 | 47 | 1016.9 |
| 20260504001440 | 56 | 315 | 0.0 | 2.0 | 0.00 | 0.00 | 0.00 | 46 | 1016.9 |
| 20260504000936 | 56 | 329 | 0.0 | 2.0 | 0.00 | 0.00 | 0.00 | 44 | 1016.8 |